WAT9508 SVMC-SKRG

Flight info

Callsign WAT9508
Flight time N/A
Altitude 30000
Route ASIBA1 BOBAT W1 STB A567 CUC G431 EJA W26 DIPRA DIPRA3B
Aircraft E135/M-SDFGIRW/S

Departure

Time N/A
Airport La Chinita International Airport (SVMC)

Arrival

Time 2026-04-28 01:04
Airport Jose Maria Córdova International Airport (SKRG)
Time Latitude Longitude Altitude Speed Heading
2026-04-28 00:35 7.73951 -72.79165 30329 ft 446 kts 233°
2026-04-28 00:35 7.72160 -72.81730 30358 ft 446 kts 233°
2026-04-28 00:36 7.68616 -72.86815 30389 ft 444 kts 233°
2026-04-28 00:36 7.65040 -72.91930 30445 ft 446 kts 233°
2026-04-28 00:37 7.61473 -72.97028 30481 ft 445 kts 233°
2026-04-28 00:37 7.57904 -73.02129 30484 ft 446 kts 232°
2026-04-28 00:38 7.54302 -73.07272 30397 ft 447 kts 233°
2026-04-28 00:38 7.50723 -73.12380 30338 ft 446 kts 233°
2026-04-28 00:39 7.47121 -73.17514 30300 ft 446 kts 233°
2026-04-28 00:39 7.43533 -73.22635 30271 ft 448 kts 233°
2026-04-28 00:40 7.39949 -73.27751 30183 ft 447 kts 233°
2026-04-28 00:40 7.36360 -73.32865 30159 ft 448 kts 233°
2026-04-28 00:41 7.32785 -73.37958 30124 ft 447 kts 233°
2026-04-28 00:41 7.29190 -73.43082 30111 ft 447 kts 233°
2026-04-28 00:42 7.25597 -73.48198 30055 ft 448 kts 233°
2026-04-28 00:42 7.22001 -73.53318 30044 ft 447 kts 233°
2026-04-28 00:43 7.18398 -73.58448 30032 ft 447 kts 233°
2026-04-28 00:43 7.14806 -73.63554 30004 ft 448 kts 233°
2026-04-28 00:44 7.11216 -73.68661 29988 ft 446 kts 232°
2026-04-28 00:44 7.07632 -73.73760 29969 ft 447 kts 232°
2026-04-28 00:45 7.04016 -73.78901 29956 ft 447 kts 233°
2026-04-28 00:45 7.00760 -73.84295 29944 ft 448 kts 239°
2026-04-28 00:46 6.97704 -73.89769 29940 ft 449 kts 238°
2026-04-28 00:46 6.94656 -73.95216 29942 ft 449 kts 238°
2026-04-28 00:47 6.75841 -74.28800 29986 ft 447 kts 238°
2026-04-28 00:47 6.60358 -74.57335 30060 ft 449 kts 251°
2026-04-28 00:48 6.58340 -74.63288 30081 ft 449 kts 249°
2026-04-28 00:48 6.56353 -74.68971 30100 ft 449 kts 249°
2026-04-28 00:49 6.54329 -74.74744 30127 ft 448 kts 249°
2026-04-28 00:49 6.52248 -74.80681 30140 ft 447 kts 249°
2026-04-28 00:50 6.50171 -74.86599 30163 ft 446 kts 249°
2026-04-28 00:50 6.48105 -74.92484 30174 ft 447 kts 249°
2026-04-28 00:51 6.46040 -74.98369 30189 ft 447 kts 249°
2026-04-28 00:52 6.41646 -75.10874 30236 ft 446 kts 249°
2026-04-28 00:52 6.40451 -75.13753 30125 ft 447 kts 240°
2026-04-28 00:52 6.38470 -75.16155 29281 ft 438 kts 219°
2026-04-28 00:52 6.35944 -75.17613 28486 ft 413 kts 198°
2026-04-28 00:53 6.33194 -75.18243 27777 ft 395 kts 192°
2026-04-28 00:53 6.30564 -75.18893 27237 ft 385 kts 193°
2026-04-28 00:53 6.27980 -75.19571 26743 ft 379 kts 193°
2026-04-28 00:53 6.25443 -75.20253 26241 ft 374 kts 193°
2026-04-28 00:54 6.22941 -75.20933 25744 ft 370 kts 193°
2026-04-28 00:54 6.20464 -75.21606 25248 ft 371 kts 193°
2026-04-28 00:54 6.17914 -75.22297 24779 ft 386 kts 194°
2026-04-28 00:54 6.15278 -75.23015 24298 ft 392 kts 194°
2026-04-28 00:55 6.12620 -75.23738 23816 ft 398 kts 194°
2026-04-28 00:55 6.10027 -75.24447 22936 ft 396 kts 193°
2026-04-28 00:55 6.07383 -75.25164 21785 ft 396 kts 194°
2026-04-28 00:55 6.04763 -75.25881 20676 ft 396 kts 194°
2026-04-28 00:56 6.02094 -75.26603 19559 ft 394 kts 195°
2026-04-28 00:56 5.99467 -75.27316 18431 ft 392 kts 193°
2026-04-28 00:56 5.96835 -75.28033 17294 ft 391 kts 194°
2026-04-28 00:56 5.94211 -75.28748 16160 ft 389 kts 194°
2026-04-28 00:57 5.91632 -75.29487 15015 ft 387 kts 199°
2026-04-28 00:57 5.89429 -75.30959 14103 ft 377 kts 226°
2026-04-28 00:57 5.88122 -75.33128 13605 ft 358 kts 250°
2026-04-28 00:57 5.87744 -75.35565 13102 ft 341 kts 266°
2026-04-28 00:58 5.87664 -75.37888 12599 ft 328 kts 273°
2026-04-28 00:58 5.88372 -75.39964 12366 ft 304 kts 306°
2026-04-28 00:58 5.89928 -75.41248 12349 ft 276 kts 336°
2026-04-28 00:58 5.91748 -75.41770 11928 ft 270 kts 351°
2026-04-28 00:59 5.93612 -75.42006 11516 ft 265 kts 355°
2026-04-28 00:59 5.95432 -75.42154 11147 ft 259 kts 356°
2026-04-28 00:59 5.97223 -75.42308 10761 ft 254 kts 355°
2026-04-28 00:59 5.98954 -75.42368 10474 ft 241 kts
2026-04-28 01:00 6.00595 -75.42246 10336 ft 229 kts
2026-04-28 01:00 6.02185 -75.42223 9816 ft 215 kts
2026-04-28 01:00 6.03634 -75.42225 9111 ft 203 kts
2026-04-28 01:00 6.04925 -75.42233 8866 ft 174 kts
2026-04-28 01:01 6.06069 -75.42241 8648 ft 152 kts
2026-04-28 01:01 6.07087 -75.42248 8429 ft 139 kts
2026-04-28 01:01 6.08020 -75.42253 8250 ft 132 kts
2026-04-28 01:01 6.08942 -75.42261 8087 ft 129 kts 360°
2026-04-28 01:02 6.09833 -75.42265 7931 ft 127 kts 360°
2026-04-28 01:02 6.10724 -75.42276 7770 ft 125 kts 359°
2026-04-28 01:02 6.11601 -75.42279 7609 ft 124 kts 359°
2026-04-28 01:02 6.12455 -75.42285 7452 ft 122 kts 359°
2026-04-28 01:03 6.13035 -75.42291 7345 ft 121 kts 358°
2026-04-28 01:03 6.14158 -75.42301 7131 ft 119 kts 359°
2026-04-28 01:03 6.14999 -75.42306 6984 ft 120 kts 359°
2026-04-28 01:03 6.15790 -75.42314 6965 ft 98 kts 359°
2026-04-28 01:04 6.16196 -75.42321 6970 ft 12 kts 352°
2026-04-28 01:04 6.16226 -75.42343 6971 ft 3 kts 297°
2026-04-28 01:04 6.16239 -75.42368 6972 ft 4 kts 297°
2026-04-28 01:04 6.16250 -75.42396 6972 ft 4 kts 281°
2026-04-28 01:05 6.16251 -75.42416 6972 ft 4 kts 270°
2026-04-28 01:05 6.16252 -75.42462 6972 ft 5 kts 285°
2026-04-28 01:05 6.16277 -75.42481 6973 ft 4 kts 351°
2026-04-28 01:05 6.16311 -75.42482 6973 ft 5 kts
2026-04-28 01:06 6.16352 -75.42482 6975 ft 7 kts 359°
2026-04-28 01:06 6.16413 -75.42483 6976 ft 9 kts 360°
2026-04-28 01:06 6.16483 -75.42484 6978 ft 10 kts 359°
2026-04-28 01:06 6.16558 -75.42484 6980 ft 10 kts 359°
2026-04-28 01:07 6.16636 -75.42484 6982 ft 11 kts 360°
2026-04-28 01:07 6.16718 -75.42484 6984 ft 11 kts 360°
2026-04-28 01:07 6.16799 -75.42484 6986 ft 11 kts
2026-04-28 01:07 6.16851 -75.42486 6987 ft 10 kts 354°
2026-04-28 01:08 6.16934 -75.42524 6990 ft 8 kts 328°
2026-04-28 01:08 6.16983 -75.42554 6991 ft 7 kts 330°
2026-04-28 01:08 6.17017 -75.42585 6992 ft 6 kts 280°
2026-04-28 01:08 6.17006 -75.42609 6992 ft 0 kts 218°
2026-04-28 01:09 6.17002 -75.42612 6992 ft 2 kts 218°
2026-04-28 01:09 6.16983 -75.42627 6992 ft 3 kts 233°
2026-04-28 01:10 6.16988 -75.42652 6993 ft 4 kts 297°
2026-04-28 01:10 6.17004 -75.42677 6993 ft 4 kts 306°
2026-04-28 01:10 6.17021 -75.42700 6993 ft 3 kts 305°
2026-04-28 01:10 6.17031 -75.42715 6994 ft 1 kts 306°
2026-04-28 01:11 6.17032 -75.42715 6994 ft 0 kts 306°